Wind_Speed
8 7 6 6 5 4 4 4 6 7 6 6 6 5 4 3 3 3 3 2 2 2 2 1 1 1 1 1 1 2 2 2 3 3 3 4 3 3 3 3 2 1 2 4 5 7 8 9 10
7 6 4 5 5 4 4 6 6 7 7 6 6 5 5 4 4 5 4 4 4 4 4 3 3 3 3 3 2 2 2 2 2 2 2 2 2 2 3 3 2 2 2 3 4 5 7 7 8
5 4 4 5 6 5 5 7 7 7 8 7 7 6 6 5 4 5 5 5 5 6 6 6 6 6 5 5 5 5 4 4 3 3 2 2 2 2 2 2 2 2 1 2 3 4 5 6 7
5 4 5 4 5 5 6 6 7 7 8 7 7 7 6 5 5 5 6 6 6 7 7 8 8 8 8 8 8 7 7 6 6 5 4 4 3 2 2 2 2 2 2 2 2 3 4 4 5
5 6 6 5 5 6 6 7 7 7 7 8 7 7 7 6 6 6 7 8 7 8 9 9 9 10 11 11 10 10 10 9 8 7 7 6 5 4 3 3 2 2 2 2 2 2 3 3 3
5 7 7 7 8 6 6 6 7 8 9 9 9 9 9 8 8 7 8 9 9 9 10 11 11 11 12 13 13 13 12 12 11 10 9 8 8 7 6 5 4 3 3 3 3 3 3 3 3
6 7 8 9 9 8 9 9 10 11 11 11 11 11 12 12 11 10 10 11 11 11 12 12 13 13 14 14 15 15 15 15 14 13 12 11 10 9 8 7 6 5 4 4 3 3 3 3 3
8 8 9 9 9 9 10 12 14 15 15 14 14 14 14 14 14 14 13 13 13 14 14 15 15 16 16 17 17 17 17 17 17 16 16 15 14 13 11 10 9 8 6 5 5 4 4 4 4
9 9 10 10 11 13 14 14 15 17 17 17 18 18 17 18 18 18 18 18 18 18 18 18 18 18 19 19 19 20 20 20 19 19 19 18 17 16 15 13 13 11 10 8 7 5 5 4 4
10 10 11 11 13 14 15 16 17 18 19 20 21 21 21 21 21 22 23 23 23 23 23 23 23 22 22 21 22 22 22 21 22 22 22 22 21 20 19 17 16 15 13 12 10 8 7 6 5
11 12 13 13 14 16 17 18 19 20 22 23 24 25 25 25 26 26 27 28 28 29 29 28 28 27 27 26 25 25 24 24 24 24 24 24 23 24 23 21 20 18 17 15 14 12 10 8 7
13 14 15 16 17 19 20 21 22 23 25 26 27 28 28 29 29 30 31 32 32 33 33 32 32 32 31 31 30 30 28 27 27 27 26 26 25 25 25 25 24 22 21 19 17 15 14 12 10
15 16 17 19 20 21 22 23 23 23 25 26 28 29 30 30 31 32 34 34 35 36 36 36 37 36 36 35 34 33 32 32 31 31 29 28 28 27 26 27 27 26 25 23 21 19 17 15 13
17 18 19 20 21 21 21 22 22 23 26 28 28 29 30 32 33 34 35 36 37 37 38 39 39 39 39 39 38 36 36 35 34 33 33 31 30 29 29 30 30 30 28 26 25 23 21 19 17
18 18 20 21 21 20 21 23 25 26 27 28 28 29 29 31 33 34 35 37 37 38 39 39 40 41 41 41 41 40 40 39 38 37 36 35 32 31 31 31 31 32 31 30 28 26 24 22 20
19 20 21 22 22 22 24 26 26 27 27 27 28 28 29 30 31 32 33 35 36 37 38 39 39 40 40 41 42 42 42 41 41 40 39 37 36 35 33 32 31 31 32 32 30 29 27 26 24
21 22 23 24 24 25 26 27 28 28 27 27 28 28 29 29 30 31 32 32 33 35 36 37 38 38 39 40 40 42 42 42 41 41 41 40 39 37 35 34 32 32 32 32 32 30 29 28 27
22 23 24 25 26 27 28 29 28 27 26 27 27 27 28 28 28 29 29 30 31 32 33 34 35 36 36 37 37 38 40 41 41 41 41 42 41 40 39 37 35 34 32 32 33 33 31 30 29
21 23 25 25 26 26 26 26 25 24 24 24 24 24 25 26 27 27 27 27 28 29 30 31 32 33 33 34 34 35 37 38 39 40 41 41 42 42 41 40 39 36 33 32 33 33 33 32 31
20 22 24 25 25 24 24 23 22 21 20 20 21 22 24 25 25 26 25 25 26 27 27 28 28 28 29 31 32 33 34 36 37 39 40 40 41 42 43 42 40 39 37 34 33 33 31 32 32
19 21 22 22 21 22 21 20 18 17 17 18 20 21 22 23 23 24 24 24 24 24 24 24 25 25 25 27 28 30 31 33 34 36 38 39 39 41 41 42 42 41 39 36 34 33 33 31 32
18 19 19 19 19 19 18 16 14 15 17 18 19 21 22 22 22 22 22 22 22 22 21 20 20 20 21 22 24 26 28 30 32 33 35 36 37 38 39 40 41 41 40 37 35 35 34 32 32
16 16 17 17 16 14 13 13 14 15 17 19 21 22 23 22 22 21 21 21 21 21 20 18 17 17 18 19 20 22 24 25 27 29 31 33 34 36 38 39 40 40 39 38 36 37 35 34 33
14 13 14 13 12 11 11 13 14 17 18 19 21 22 23 22 21 21 22 22 21 20 19 17 16 15 15 15 16 17 19 21 23 25 27 29 31 34 36 37 38 39 39 38 38 38 37 36 35
11 11 11 11 10 10 11 12 15 16 18 19 20 21 21 21 21 21 22 22 22 21 20 18 17 16 15 14 13 13 14 15 17 20 22 25 28 30 33 35 36 38 39 39 39 38 37 36 36
10 10 11 11 11 11 12 14 15 16 17 18 18 19 20 20 20 21 22 22 22 21 21 20 19 17 16 15 13 12 12 11 12 14 17 20 22 26 29 31 34 36 38 39 39 39 38 37 36
10 11 11 12 12 13 13 13 15 15 17 17 18 19 20 20 21 21 23 23 22 22 21 21 20 19 18 17 15 13 11 11 10 9 10 13 16 20 24 28 31 34 36 39 39 38 38 37 36
11 12 12 13 13 13 13 14 15 16 17 17 19 20 20 21 21 21 22 23 23 22 22 22 21 20 20 18 17 15 13 12 11 10 9 9 11 14 18 23 27 30 33 36 37 38 39 39 37
11 12 13 13 13 13 13 14 15 16 17 17 18 19 20 20 21 21 22 23 23 22 22 22 22 21 21 20 18 17 15 14 13 12 9 8 7 9 12 17 21 25 28 32 35 38 39 39 38
11 12 13 13 13 13 13 14 15 16 17 17 18 19 19 20 21 21 21 22 23 23 23 23 22 22 21 21 19 18 17 16 15 13 11 9 7 7 9 12 16 19 23 27 31 34 36 37 37
Wind_Direction
59 57 50 37 22 20 18 38 47 45 44 39 28 18 19 8 331 307 305 279 268 269 278 288 306 344 9 22 27 26 24 23 26 30 33 32 31 27 22 16 3 317 262 241 233 230 228 226 225
53 45 41 12 6 10 19 35 38 35 34 33 22 11 7 358 330 310 301 284 273 270 271 274 276 277 279 281 284 291 302 317 331 343 1 12 17 18 17 15 10 351 295 256 242 237 234 232 227
48 31 24 355 351 8 20 30 30 25 22 18 11 9 6 353 331 310 300 288 281 278 276 275 275 275 274 272 272 272 274 277 282 288 293 309 332 350 358 1 359 351 326 284 259 251 248 241 232
19 1 350 349 354 11 13 18 25 20 13 3 358 357 351 343 329 311 299 291 285 282 279 278 275 273 272 270 268 267 268 269 269 270 270 274 283 299 320 335 335 334 328 311 288 271 259 246 237
353 342 337 350 351 2 7 7 6 4 356 349 346 340 333 327 319 309 299 294 288 283 279 275 274 272 270 268 267 265 265 265 264 264 263 265 268 272 279 292 308 315 316 312 299 284 272 259 246
322 323 331 337 343 345 350 348 339 342 336 332 329 322 319 318 312 304 294 291 289 285 280 274 271 269 268 267 265 264 262 262 261 261 260 261 262 264 267 271 278 289 297 297 289 280 276 270 259
302 312 318 321 323 324 328 326 324 325 323 321 317 312 308 306 302 297 292 287 283 281 279 275 270 267 264 263 262 261 260 259 259 259 258 259 259 261 263 266 269 273 278 282 279 274 270 267 262
297 305 309 311 314 312 317 319 318 317 314 311 307 303 300 298 295 290 286 284 282 279 276 273 271 267 264 261 259 257 256 256 256 256 256 256 257 257 260 263 264 266 267 267 268 268 268 263 259
296 300 301 301 304 308 311 311 310 308 306 303 301 298 294 291 289 286 282 279 276 275 275 273 271 269 267 264 260 258 257 255 254 254 254 253 254 255 256 258 261 262 262 260 259 259 261 259 253
289 290 294 294 298 300 303 305 303 300 299 298 297 295 292 288 285 282 279 277 276 273 272 271 270 268 267 267 264 260 257 258 256 254 254 254 253 254 254 255 257 257 256 256 254 251 251 251 249
285 288 290 288 294 297 300 300 298 297 296 294 292 291 288 285 282 280 278 276 274 273 270 268 268 266 265 264 264 264 262 260 258 256 255 256 256 253 252 253 253 254 252 251 250 248 246 246 244
286 289 292 294 297 300 300 299 296 295 294 294 293 291 288 286 283 280 277 274 273 271 269 267 265 264 262 261 260 261 261 261 259 258 257 254 255 255 254 252 251 250 250 248 245 245 244 242 241
288 291 294 296 299 301 300 298 297 297 298 298 296 292 289 287 284 282 278 275 273 271 269 267 266 263 261 260 257 256 256 257 258 257 257 256 255 255 257 256 253 248 246 245 244 242 242 239 237
294 296 298 299 300 301 299 296 296 299 302 301 298 295 292 289 286 283 281 278 275 273 270 269 267 265 263 261 259 257 255 254 256 257 257 255 255 254 255 257 257 251 245 242 241 239 240 239 237
296 297 298 298 299 301 301 301 301 303 303 302 300 298 295 292 289 286 282 279 277 275 273 270 268 267 265 263 262 259 256 255 254 255 256 254 253 254 255 258 260 254 247 242 239 238 238 238 238
297 298 298 299 300 301 303 307 306 307 304 304 302 301 299 296 293 290 286 282 280 277 275 273 271 269 267 265 263 261 258 257 255 255 255 255 253 253 255 256 258 256 250 245 242 239 238 237 237
298 299 304 307 308 309 311 312 313 313 311 308 306 304 302 299 297 293 290 286 283 280 278 275 274 271 269 267 265 263 261 259 257 255 254 254 254 253 254 256 257 257 254 249 243 239 236 236 235
304 308 311 314 313 313 313 314 316 315 314 312 310 308 307 305 302 299 294 291 287 284 281 278 275 273 270 268 266 264 262 260 258 257 254 252 252 252 253 253 254 255 253 250 246 240 237 236 235
308 310 312 313 312 311 312 315 318 318 317 315 314 313 312 311 309 305 301 297 294 289 286 282 279 275 271 269 267 265 263 260 258 257 255 253 251 251 251 252 252 252 252 250 249 242 238 236 236
308 308 310 310 311 312 314 318 320 320 320 320 319 317 317 317 317 316 313 309 304 298 293 288 284 278 272 270 270 268 264 261 259 257 255 253 251 250 249 249 249 249 250 249 247 242 239 237 235
306 308 310 312 313 314 317 320 323 326 329 330 330 330 328 328 327 325 323 319 315 310 304 295 289 283 278 275 272 269 266 264 261 258 255 253 251 248 246 245 246 246 246 246 243 239 237 237 235
310 312 315 317 319 319 322 327 337 343 347 348 348 346 343 340 337 335 333 330 327 323 319 310 300 292 286 281 277 273 270 265 262 259 256 252 249 246 244 242 242 242 242 242 240 238 235 236 236
318 320 323 326 328 328 333 345 357 358 359 358 356 354 353 352 350 348 346 344 341 337 332 325 316 306 298 291 286 280 275 269 264 260 255 250 248 246 243 240 239 240 239 237 237 236 235 235 234
330 332 335 337 337 341 351 359 7 5 3 2 0 359 359 359 359 359 358 356 354 351 348 343 337 328 319 310 300 292 284 277 270 263 255 250 248 245 242 240 238 237 235 234 235 234 234 234 235
347 351 351 351 356 5 11 14 11 8 6 5 5 5 5 6 6 5 5 5 4 3 360 355 351 346 340 332 322 310 300 288 276 267 258 253 249 245 242 238 235 233 232 232 233 233 232 232 234
10 12 11 13 16 20 22 20 17 15 13 12 11 10 11 11 10 10 11 10 10 10 9 7 4 0 356 351 343 333 324 313 295 280 265 257 251 246 241 237 234 231 230 230 230 230 230 230 232
26 27 27 29 28 30 29 27 27 24 21 19 18 17 16 16 16 16 16 15 15 16 16 16 16 14 10 5 0 354 344 336 329 310 283 265 255 248 241 237 235 231 229 229 229 229 230 229 230
39 39 39 38 35 34 36 35 32 29 25 23 22 20 19 17 17 17 17 17 17 18 18 19 19 18 17 15 13 8 2 358 351 338 322 288 265 251 243 238 233 231 230 229 228 227 227 227 228
53 50 47 44 40 39 38 36 30 27 24 23 22 20 18 17 16 16 16 16 17 17 17 17 18 18 16 16 16 14 10 8 5 358 346 327 293 266 250 243 236 232 230 228 228 228 227 226 227
59 54 48 44 42 40 37 34 29 27 26 25 23 20 19 18 18 18 17 18 19 19 19 18 17 18 18 18 16 16 14 11 7 2 355 346 322 283 258 248 241 236 233 231 229 229 228 227 227
Height
5935 5934 5934 5935 5935 5934 5933 5932 5931 5931 5930 5929 5928 5928 5928 5927 5927 5928 5926 5924 5924 5923 5923 5922 5922 5921 5921 5921 5920 5920 5920 5919 5919 5918 5918 5917 5916 5915 5915 5914 5913 5913 5912 5912 5911 5911 5910 5910 5910
5936 5935 5936 5936 5935 5934 5934 5932 5931 5931 5931 5929 5929 5929 5928 5927 5926 5925 5924 5924 5923 5923 5923 5922 5922 5922 5921 5921 5921 5920 5920 5919 5919 5918 5918 5917 5916 5916 5915 5914 5913 5913 5912 5912 5911 5910 5910 5910 5909
5938 5936 5936 5937 5935 5935 5934 5933 5932 5931 5930 5930 5929 5929 5929 5927 5926 5924 5923 5923 5923 5922 5922 5922 5921 5921 5921 5921 5920 5920 5920 5919 5919 5918 5918 5917 5916 5916 5915 5914 5913 5913 5912 5912 5911 5910 5909 5909 5909
5939 5938 5938 5938 5936 5935 5934 5933 5932 5931 5930 5929 5929 5928 5928 5927 5926 5924 5922 5922 5922 5921 5921 5921 5920 5920 5920 5920 5920 5919 5919 5919 5918 5918 5917 5917 5916 5915 5915 5914 5913 5913 5912 5911 5911 5910 5909 5909 5908
5940 5939 5939 5937 5936 5934 5932 5932 5932 5931 5930 5929 5928 5927 5927 5926 5925 5923 5921 5920 5920 5920 5919 5919 5918 5918 5918 5918 5918 5918 5918 5917 5917 5917 5916 5916 5915 5915 5914 5914 5913 5912 5912 5911 5910 5909 5909 5908 5908
5940 5939 5938 5937 5935 5934 5932 5931 5931 5931 5929 5928 5927 5926 5925 5924 5923 5922 5920 5919 5918 5917 5917 5916 5916 5916 5916 5916 5915 5915 5915 5915 5915 5915 5915 5914 5914 5914 5913 5913 5912 5912 5911 5911 5910 5909 5909 5908 5908
5940 5938 5937 5936 5935 5933 5931 5930 5929 5929 5928 5927 5926 5925 5923 5922 5921 5920 5918 5917 5916 5915 5914 5913 5913 5913 5913 5912 5912 5912 5912 5912 5912 5912 5912 5912 5912 5912 5912 5912 5911 5911 5910 5910 5909 5909 5908 5908 5907
5938 5938 5936 5935 5934 5933 5931 5929 5927 5926 5925 5925 5924 5922 5921 5920 5918 5917 5916 5915 5913 5912 5911 5910 5909 5909 5909 5908 5908 5908 5908 5908 5908 5909 5909 5909 5909 5909 5909 5909 5909 5909 5909 5909 5908 5908 5908 5907 5907
5937 5937 5935 5934 5933 5931 5929 5927 5926 5923 5923 5922 5920 5919 5918 5917 5915 5914 5912 5912 5910 5909 5908 5906 5906 5905 5904 5904 5904 5904 5904 5904 5904 5905 5905 5905 5906 5906 5906 5907 5907 5907 5907 5907 5907 5907 5907 5906 5906
5936 5935 5933 5932 5930 5928 5927 5925 5923 5921 5920 5918 5917 5915 5914 5912 5911 5909 5908 5907 5906 5905 5904 5902 5902 5901 5900 5899 5899 5898 5899 5899 5900 5900 5901 5901 5902 5902 5903 5903 5904 5904 5904 5905 5905 5905 5905 5905 5905
5933 5932 5931 5929 5927 5925 5924 5922 5920 5918 5916 5914 5912 5911 5909 5908 5906 5904 5902 5901 5899 5898 5897 5897 5896 5896 5895 5894 5894 5893 5894 5894 5895 5895 5896 5897 5897 5898 5899 5899 5900 5901 5901 5902 5902 5903 5903 5903 5904
5931 5929 5927 5926 5924 5922 5920 5918 5916 5913 5911 5909 5907 5905 5903 5901 5899 5897 5895 5894 5892 5890 5889 5888 5888 5888 5888 5888 5888 5888 5888 5888 5889 5889 5890 5891 5892 5893 5893 5894 5895 5896 5897 5898 5899 5900 5900 5901 5902
5927 5925 5924 5922 5920 5917 5915 5913 5910 5907 5905 5903 5900 5897 5895 5893 5891 5889 5887 5885 5883 5882 5880 5879 5879 5879 5879 5879 5880 5880 5881 5881 5882 5882 5883 5885 5886 5887 5888 5888 5889 5890 5892 5893 5895 5896 5897 5898 5899
5923 5921 5920 5918 5916 5913 5911 5908 5905 5902 5899 5896 5893 5890 5888 5885 5883 5880 5878 5876 5874 5872 5870 5869 5869 5869 5869 5869 5870 5871 5872 5873 5874 5875 5876 5877 5879 5880 5881 5882 5883 5884 5886 5888 5890 5892 5893 5894 5896
5919 5918 5916 5913 5912 5910 5907 5904 5900 5896 5893 5889 5886 5883 5880 5877 5874 5871 5868 5866 5864 5862 5860 5859 5859 5858 5858 5858 5859 5861 5862 5864 5865 5867 5868 5869 5871 5872 5874 5875 5876 5877 5879 5881 5883 5886 5888 5890 5892
5915 5914 5911 5909 5907 5905 5903 5899 5895 5891 5887 5883 5879 5876 5873 5869 5866 5862 5859 5856 5854 5852 5850 5849 5848 5848 5848 5848 5848 5849 5851 5853 5856 5857 5859 5861 5862 5864 5866 5868 5869 5871 5872 5874 5876 5879 5882 5885 5887
5911 5909 5906 5904 5901 5898 5895 5892 5888 5884 5880 5876 5872 5869 5865 5862 5858 5854 5851 5847 5845 5842 5840 5839 5837 5837 5837 5837 5837 5838 5840 5842 5844 5847 5849 5851 5853 5855 5858 5860 5861 5863 5865 5867 5869 5872 5875 5878 5881
5906 5903 5901 5898 5894 5891 5888 5885 5882 5878 5874 5870 5866 5862 5858 5854 5850 5846 5843 5839 5836 5833 5831 5829 5827 5826 5826 5826 5826 5827 5828 5830 5832 5835 5838 5840 5843 5846 5848 5851 5853 5855 5858 5860 5862 5865 5869 5872 5875
5902 5899 5896 5893 5890 5887 5883 5880 5877 5873 5869 5865 5861 5856 5852 5848 5844 5839 5835 5832 5828 5825 5822 5820 5818 5817 5816 5816 5816 5816 5817 5819 5821 5823 5826 5828 5832 5835 5838 5841 5844 5847 5849 5852 5855 5857 5861 5864 5868
5898 5896 5893 5889 5886 5882 5879 5877 5873 5870 5865 5861 5857 5852 5848 5843 5838 5833 5829 5825 5821 5817 5814 5811 5809 5808 5807 5806 5806 5806 5807 5808 5809 5811 5814 5817 5820 5823 5827 5830 5834 5837 5841 5844 5847 5850 5853 5856 5860
5895 5892 5889 5886 5883 5879 5876 5873 5870 5866 5862 5857 5853 5848 5843 5838 5834 5829 5824 5819 5815 5811 5807 5804 5802 5800 5799 5798 5797 5797 5797 5797 5798 5800 5802 5805 5808 5811 5815 5819 5823 5827 5831 5835 5839 5842 5845 5848 5852
5892 5889 5885 5882 5879 5876 5873 5870 5867 5862 5858 5854 5850 5845 5840 5835 5830 5825 5820 5816 5811 5806 5802 5798 5795 5793 5792 5790 5789 5788 5788 5788 5788 5789 5790 5793 5796 5799 5803 5808 5812 5816 5821 5826 5830 5834 5837 5840 5844
5889 5885 5882 5879 5876 5874 5871 5868 5865 5860 5856 5852 5848 5843 5838 5833 5828 5823 5818 5813 5808 5803 5798 5794 5791 5788 5786 5784 5782 5781 5779 5779 5779 5779 5780 5782 5785 5788 5792 5796 5801 5805 5811 5816 5820 5825 5829 5832 5836
5886 5883 5880 5877 5875 5872 5869 5866 5863 5858 5855 5851 5846 5842 5837 5832 5827 5822 5817 5811 5806 5801 5796 5792 5788 5785 5782 5779 5777 5774 5773 5772 5771 5771 5771 5773 5775 5777 5781 5785 5790 5795 5800 5805 5810 5815 5819 5823 5827
5884 5882 5879 5876 5874 5871 5868 5865 5862 5858 5854 5850 5846 5842 5837 5832 5827 5822 5817 5811 5806 5801 5796 5791 5786 5783 5779 5776 5773 5770 5768 5766 5765 5764 5764 5765 5766 5769 5771 5775 5780 5784 5789 5795 5800 5805 5809 5814 5818
5883 5881 5879 5876 5873 5870 5867 5864 5862 5858 5854 5850 5846 5842 5837 5832 5828 5822 5817 5812 5806 5801 5796 5791 5786 5782 5778 5774 5771 5768 5765 5762 5760 5759 5758 5758 5759 5761 5763 5766 5770 5775 5780 5785 5790 5794 5799 5804 5809
5882 5880 5878 5875 5872 5870 5867 5865 5862 5858 5855 5851 5847 5842 5838 5833 5829 5824 5818 5813 5807 5802 5797 5792 5787 5782 5778 5774 5770 5766 5763 5760 5758 5755 5754 5753 5753 5754 5755 5758 5762 5766 5770 5775 5780 5785 5790 5795 5800
5883 5880 5878 5875 5873 5870 5868 5865 5863 5859 5855 5851 5847 5843 5839 5834 5830 5825 5820 5814 5809 5803 5798 5794 5789 5784 5779 5775 5770 5767 5763 5760 5756 5754 5751 5749 5749 5748 5749 5752 5754 5758 5762 5766 5771 5776 5781 5786 5791
5884 5881 5878 5876 5873 5871 5868 5868 5863 5860 5856 5852 5848 5844 5840 5835 5831 5826 5821 5816 5810 5805 5800 5795 5790 5785 5780 5776 5771 5767 5763 5760 5757 5753 5750 5748 5746 5745 5746 5747 5749 5751 5755 5758 5763 5767 5771 5776 5781
5884 5881 5879 5877 5875 5871 5869 5870 5864 5860 5856 5852 5849 5845 5841 5837 5832 5827 5823 5817 5812 5807 5802 5797 5792 5787 5782 5778 5773 5769 5764 5761 5757 5753 5750 5747 5745 5744 5743 5743 5744 5746 5748 5751 5755 5759 5763 5767 5772